Kodiak, AK

7:58 AM AKST en Diciembre 18, 2018 (GMT -0900)
Kodiak

Tiempo Historia de PADQ - Diciembre, 2018

Change the Weather History Date:

Jueves, Diciembre 6, 2018

  Actual Average Record
Temperature  
Temperatura media 41 ° F 32 ° F  
Temperatura máxima 42 ° F 36 ° F 46 ° F (1978)
Temperatura mínima 40 ° F 27 ° F 5 ° F (1970)
Degree Days  
Grados día de calefacción 24 34  
Month to date heating degree days 151 199  
Since 1 July heating degree days 2341 2994  
Cooling Degree Days 0 0  
Month to date cooling degree days 0 0  
Year to date cooling degree days 8 1  
Moisture  
Punto de rocío 39 ° F    
Average Humidity 88    
Maximum Humidity 93    
Minimum Humidity 82    
Precipitación  
Precipitación 0.06 pul 0.28 pul 2.75 pul (1998)
Month to date precipitation 1.44 1.65  
Year to date precipitation 68.47 70.92  
Nieve  
Nieve 0.00 pul 0.50 pul 7.00 pul (1981)
Month to date snowfall 0.0 2.7  
Since 1 July snowfall 0.0 10.2  
Since 1 September snowfall 0.0 10.2  
Grosos de nieve -    
Presión al nivel del mar  
Presión al nivel del mar 29.41 pul    
Viento  
Velocidad del viento 11 mph (ENE)    
Velocidad máxima del viento 18 mph    
Max Gust Speed 21 mph    
Visibilidad 8 Millas    
Eventos Lluvia    
T = Trace of Precipitation, MM = Missing Value Source: NWS Daily Summary

Daily Weather History Graph

Daily Weather History Graph

Search for Another Location

Airport or City:

Astronomía

Dec. 06, 2018 Salida Puesta
Hora real 9:36 AM AKST 4:25 PM AKST
Crepúsculo civil 8:46 AM AKST 5:15 PM AKST
Crepúsculo náutico 7:55 AM AKST 6:06 PM AKST
Crepúsculo astronómico 7:08 AM AKST 6:53 PM AKST
Luna 8:38 AM AKST (12/6) 4:41 PM AKST (12/6)
Horas de luz 8h 28m
Horas de luz
6h 48m
Creciente menguante, 0% of the Moon is Illuminated
Dic 6
Creciente menguante
Dic 6
Nueva
Dic 15
Cuarto creciente
Dic 22
Luna llena
Dic 29
Cuarto menguante

Hourly Weather History & Observations

Hora (AKST) Temp. Vientos helados Punto de rocío Humedad Presión Visibilidad Wind Dir Velocidad del viento Velocidad de ráfagas Precip Eventos Condiciones
12:53 AM 41.0 ° F 35.8 ° F 39.0 ° F 93% 29.67 pul 10.0 mi ENE 8.1 mph - 0.01 pul Lluvia Lluvia débil
1:20 AM 41.0 ° F 36.4 ° F 39.0 ° F 93% 29.65 pul 10.0 mi ENE 6.9 mph - 0.00 pul   Nublado
1:53 AM 41.0 ° F 33.9 ° F 39.9 ° F 96% 29.64 pul 9.0 mi ESE 12.7 mph - 0.00 pul Lluvia Lluvia débil
2:53 AM 41.0 ° F 39.0 ° F 39.0 ° F 93% 29.62 pul 9.0 mi SE 3.5 mph - 0.02 pul Lluvia Lluvia débil
3:27 AM 39.9 ° F - 39.0 ° F 97% 29.60 pul 10.0 mi Sin viento Sin viento - 0.00 pul   Nublado
3:53 AM 39.9 ° F 37.8 ° F 39.9 ° F 100% 29.60 pul 7.0 mi NNE 3.5 mph - 0.00 pul Lluvia Lluvia débil
3:55 AM 39.9 ° F - 39.9 ° F 100% 29.59 pul 7.0 mi Sin viento Sin viento - 0.00 pul Lluvia Lluvia débil
4:05 AM 41.0 ° F 34.3 ° F 41.0 ° F 100% 29.58 pul 10.0 mi ESE 11.5 mph - 0.00 pul Lluvia Lluvia débil
4:16 AM 42.1 ° F 34.5 ° F 41.0 ° F 96% 29.58 pul 10.0 mi ESE 15.0 mph - 0.00 pul Lluvia Lluvia débil
4:39 AM 42.1 ° F 36.1 ° F 39.0 ° F 89% 29.57 pul 10.0 mi SE 10.4 mph - 0.00 pul   Nublado
4:53 AM 42.1 ° F 34.2 ° F 39.9 ° F 92% 29.57 pul 10.0 mi ESE 16.1 mph - 0.00 pul   Nublado
5:23 AM 42.1 ° F 35.7 ° F 39.0 ° F 89% 29.56 pul 10.0 mi ESE 11.5 mph - 0.00 pul Lluvia Lluvia débil
5:41 AM 42.1 ° F 34.2 ° F 39.0 ° F 89% 29.55 pul 10.0 mi ESE 16.1 mph - 0.00 pul Lluvia Lluvia débil
5:53 AM 42.1 ° F 34.5 ° F 39.0 ° F 89% 29.54 pul 10.0 mi ESE 15.0 mph - 0.00 pul   Nublado
6:16 AM 42.1 ° F 35.7 ° F 37.9 ° F 85% 29.53 pul 10.0 mi SE 11.5 mph - N/A   Nublado
6:28 AM 42.1 ° F 35.2 ° F 37.9 ° F 85% 29.53 pul 10.0 mi SE 12.7 mph - N/A   Nublado
6:53 AM 42.1 ° F 35.2 ° F 37.9 ° F 85% 29.53 pul 10.0 mi ESE 12.7 mph - N/A   Nublado
7:09 AM 42.1 ° F 34.5 ° F 37.0 ° F 82% 29.52 pul 10.0 mi ESE 15.0 mph - N/A   Muy nublado
7:16 AM 42.1 ° F 34.9 ° F 37.0 ° F 82% 29.51 pul 10.0 mi ESE 13.8 mph - N/A   Nublado
7:32 AM 42.1 ° F 34.2 ° F 37.9 ° F 85% 29.51 pul 10.0 mi ESE 16.1 mph - N/A   Nublado
7:53 AM 42.1 ° F 35.2 ° F 37.0 ° F 82% 29.50 pul 10.0 mi ESE 12.7 mph - N/A   Nubes dispersas
8:53 AM 42.1 ° F 35.2 ° F 37.9 ° F 85% 29.49 pul 10.0 mi Este 12.7 mph - N/A   Nublado
9:53 AM 41.0 ° F 32.5 ° F 37.9 ° F 89% 29.47 pul 10.0 mi Este 17.3 mph - N/A   Nublado
10:53 AM 41.0 ° F 35.8 ° F 39.0 ° F 93% 29.46 pul 10.0 mi SE 8.1 mph - N/A   Nublado
11:00 AM 41.0 ° F 36.4 ° F 39.0 ° F 93% 29.45 pul 10.0 mi SE 6.9 mph - N/A   Nublado
11:53 AM 41.0 ° F 34.7 ° F 39.0 ° F 93% 29.43 pul 10.0 mi Este 10.4 mph - 0.02 pul   Nublado
12:53 PM 41.0 ° F 35.8 ° F 39.0 ° F 93% 29.40 pul 10.0 mi NE 8.1 mph - N/A   Nublado
1:51 PM 39.2 ° F 32.5 ° F 39.2 ° F 100% 29.36 pul 2.0 mi NE 10.4 mph - 0.00 pul Lluvia Lluvia débil
1:53 PM 39.9 ° F 33.4 ° F 39.0 ° F 97% 29.37 pul 2.0 mi NE 10.4 mph - 0.00 pul Lluvia Lluvia débil
2:10 PM 39.9 ° F 32.9 ° F 39.9 ° F 100% 29.36 pul 2.0 mi NE 11.5 mph - 0.00 pul Lluvia Lluvia débil
2:26 PM 39.9 ° F 33.9 ° F 39.9 ° F 100% 29.34 pul 4.0 mi NE 9.2 mph - 0.01 pul Lluvia Lluvia débil
2:33 PM 39.9 ° F 33.9 ° F 39.9 ° F 100% 29.34 pul 4.0 mi NNE 9.2 mph - 0.01 pul   Nublado
2:53 PM 41.0 ° F 33.1 ° F 39.9 ° F 96% 29.33 pul 4.0 mi NNE 15.0 mph - 0.01 pul   Nublado
3:07 PM 41.0 ° F 32.8 ° F 39.9 ° F 96% 29.32 pul 8.0 mi NNE 16.1 mph - 0.00 pul Lluvia Lluvia débil
3:53 PM 41.0 ° F 33.9 ° F 37.9 ° F 89% 29.31 pul 10.0 mi Este 12.7 mph - 0.00 pul   Muy nublado
4:00 PM 41.0 ° F 33.9 ° F 37.9 ° F 89% 29.30 pul 10.0 mi ENE 12.7 mph - N/A   Nublado
4:30 PM 41.0 ° F 35.8 ° F 39.0 ° F 93% 29.29 pul 10.0 mi NE 8.1 mph - N/A   Nublado
4:53 PM 41.0 ° F 35.2 ° F 39.0 ° F 93% 29.29 pul 10.0 mi NE 9.2 mph - N/A   Nublado
5:23 PM 41.0 ° F 35.8 ° F 39.0 ° F 93% 29.28 pul 10.0 mi NE 8.1 mph - N/A   Nublado
5:30 PM 41.0 ° F 35.8 ° F 39.0 ° F 93% 29.28 pul 10.0 mi NE 8.1 mph - N/A   Nublado
5:53 PM 39.9 ° F 37.8 ° F 37.9 ° F 93% 29.27 pul 10.0 mi NNE 3.5 mph - N/A   Nublado
6:32 PM 39.9 ° F 35.8 ° F 37.9 ° F 93% 29.25 pul 10.0 mi Norte 5.8 mph - N/A   Nublado
6:53 PM 39.9 ° F 35.1 ° F 37.9 ° F 93% 29.24 pul 10.0 mi Norte 6.9 mph - N/A   Nublado
7:10 PM 39.9 ° F 32.5 ° F 39.9 ° F 100% 29.23 pul 5.0 mi NE 12.7 mph - 0.00 pul Lluvia Lluvia débil
7:53 PM 41.0 ° F 33.5 ° F 39.9 ° F 96% 29.22 pul 10.0 mi NNE 13.8 mph - 0.03 pul Lluvia Lluvia débil
8:07 PM 41.0 ° F 34.3 ° F 39.9 ° F 96% 29.20 pul 10.0 mi NNE 11.5 mph - 0.01 pul Lluvia Lluvia débil
8:46 PM 39.9 ° F 32.1 ° F 37.0 ° F 89% 29.20 pul 5.0 mi NNE 13.8 mph 17.3 mph 0.04 pul Lluvia Lluvia
8:53 PM 39.0 ° F 31.8 ° F 37.0 ° F 93% 29.19 pul 5.0 mi NE 11.5 mph - 0.06 pul Lluvia Lluvia
9:53 PM 37.9 ° F 32.1 ° F 37.0 ° F 97% 29.17 pul 7.0 mi NNO 8.1 mph - 0.07 pul Lluvia Lluvia débil
10:53 PM 37.0 ° F 31.0 ° F 36.0 ° F 96% 29.14 pul 6.0 mi NNO 8.1 mph - 0.08 pul Lluvia Lluvia
11:53 PM 37.0 ° F 28.9 ° F 35.1 ° F 93% 29.12 pul 5.0 mi ONO 12.7 mph - 0.08 pul Lluvia Lluvia